Home > Weather > Köniz > Past weeks

Flag for Switzerland Weather for the Past 2 Weeks in Köniz, Bern, Switzerland

Now
57 °F

Passing clouds.


Feels Like: 56 °F
Forecast: 35 / 63 °F
Wind: 6 mph from Northeast

Location: Bern / Belp

Current Time: May 4, 2016 at 7:54:31 PM

Latest Report: May 4, 2016 at 7:20 PM


Visibility: N/A

Pressure: 30.21 "Hg (28.20 "Hg at 579m altitude)

Humidity: 39%

Dew Point: 32 °F

Location of KönizLocation

Historic Weather in Köniz — Graph

°F

Köniz Temperature Yesterday

Maximum temperature yesterday: 59 °F (at 11:50 AM)
Minimum temperature yesterday: 43 °F (at 1:50 AM)
Average temperature yesterday: 49 °F

High & Low Weather Summary for the Past Weeks

 TemperatureHumidityPressure
High72 °F (Apr 21, 3:20 PM)100% (Apr 20, 12:20 AM)30.33 "Hg (Apr 20, 12:20 AM)
Low28 °F (Apr 28, 6:50 AM)32% (Apr 28, 4:20 PM)29.68 "Hg (Apr 26, 4:20 PM)
Average46 °F80%30.02 "Hg
* Reported Apr 19 6:20 PM — May 4 6:20 PM, Köniz, Weather by CustomWeather, © 2016

Note: Actual official high and low records may vary slightly from our data, if they occured in-between our weather recording intervals... More about our weather records

Advertising

Köniz Weather History for the Previous 24 Hours

Scroll right to see more
 ConditionsComfort  
Time TempWeatherWind HumidityBarometerVisibility
6:20 PM
Wed, May 4
59 °FPassing clouds.9 mph42%30.21 "HgN/A
5:50 PM59 °FPassing clouds.8 mph42%30.21 "HgN/A
5:20 PM59 °FPassing clouds.8 mph42%30.21 "HgN/A
4:20 PM59 °FPassing clouds.10 mph42%30.24 "HgN/A
3:50 PM59 °FPassing clouds.10 mph42%30.24 "HgN/A
3:20 PM57 °FPassing clouds.10 mph44%30.24 "HgN/A
2:50 PM57 °FPassing clouds.9 mph48%30.24 "HgN/A
2:20 PM57 °FPassing clouds.10 mph44%30.24 "HgN/A
1:20 PM55 °FPassing clouds.12 mph51%30.27 "HgN/A
12:50 PM55 °FPassing clouds.12 mph55%30.27 "HgN/A
12:20 PM54 °FPassing clouds.10 mph58%30.27 "HgN/A
11:20 AM54 °FScattered clouds.9 mph63%30.27 "HgN/A
10:50 AM52 °FScattered clouds.2 mph72%30.27 "HgN/A
9:50 AM46 °FPassing clouds.3 mph87%30.30 "HgN/A
9:20 AM46 °FPassing clouds.5 mph87%30.30 "HgN/A
8:20 AM41 °FScattered clouds.3 mph100%30.30 "HgN/A
7:20 AM36 °FFog.2 mph100%30.30 "Hg1 mi
6:20 AM32 °FFog.1 mph100%30.30 "Hg0 mi
5:50 AM34 °FFog.2 mph100%30.30 "Hg0 mi
5:20 AM36 °FFog.1 mph100%30.30 "Hg1 mi
4:50 AM34 °FFog.1 mph100%30.30 "Hg1 mi
4:20 AM34 °FFog.1 mph100%30.30 "Hg1 mi
3:50 AM34 °FFog.2 mph100%30.30 "Hg2 mi
3:20 AM36 °FChilly.5 mph100%30.30 "Hg3 mi
2:50 AM37 °FFog.3 mph100%30.30 "Hg2 mi
2:20 AM37 °FChilly.5 mph100%30.30 "Hg5 mi
1:50 AM39 °FChilly.3 mph100%30.30 "HgN/A
12:50 AM41 °FOvercast.5 mph100%30.33 "HgN/A
12:20 AM43 °FOvercast.6 mph100%30.33 "HgN/A
11:50 PM
Tue, May 3
43 °FPartly cloudy.7 mph93%30.33 "HgN/A
11:20 PM43 °FPartly cloudy.7 mph100%30.33 "HgN/A
10:50 PM43 °FMostly cloudy.6 mph100%30.33 "HgN/A
10:20 PM43 °FMostly cloudy.3 mph100%30.33 "HgN/A
9:50 PM43 °FRain. Mostly cloudy.5 mph93%30.30 "Hg4 mi
9:20 PM48 °FBroken clouds.9 mph87%30.27 "HgN/A
8:50 PM48 °FBroken clouds.6 mph87%30.27 "HgN/A
8:20 PM48 °FBroken clouds.3 mph87%30.24 "HgN/A
7:50 PM50 °FPartly sunny.5 mph88%30.24 "HgN/A
7:20 PM52 °FPartly sunny.12 mph82%30.24 "HgN/A
Weather by CustomWeather, © 2016

See weather overviewHow to use our weather pages